Location: Haulchin
(50.3172°N, 3.4360°E)
Time: 21:39:17
(UTC+00:00)

Helios 1A Rocket - Pass Details

Date: 23 May 2024
Orbit: 521 x 544 km, 98.3° (Epoch: 14 June)

Event Time Altitude Azimuth Distance (km) Brightness Sun altitude
Exits shadow 01:44:24 19° 244° (WSW) 1,307 4.3 -14.1°
Maximum altitude 01:45:24 21° 266° (W) 1,232 4.3 -14.1°
Drops below altitude 10° 01:48:24 10° 317° (NW) 1,794 5.7 -13.8°
Sets 01:50:55 0° 334° (NNW) 2,686 6.8 -13.6°
